Temp_Advection
nan nan nan nan nan nan nan nan nan nan nan nan nan nan nan nan nan nan nan nan nan nan nan nan nan nan nan nan nan nan nan nan nan nan nan nan nan nan nan nan nan nan nan nan nan
nan -0 -0 -0 -0 0 0 0 0 0 -0 -0 0 0 0 -0 -0 0 0 0 -0 -0 -0 -0 -0 -0 0 0 0 -0 0 -0 -0 -0 -0 -0 -0 -1 -0 -1 -0 -0 0 1 nan
nan -0 -0 -0 -0 0 0 0 0 0 0 0 -0 0 0 0 -0 0 0 0 0 0 -0 -0 -0 -0 -0 0 0 0 -0 -0 -1 -0 0 0 -0 -0 0 -0 -1 -0 0 0 nan
nan -0 -0 -0 0 0 0 0 0 0 0 0 0 -0 -0 -0 0 -0 0 0 0 0 0 -0 -0 0 0 -0 0 0 -0 -0 -0 -0 0 -0 -0 0 -1 -1 -0 0 0 0 nan
nan 0 0 0 0 0 0 0 0 0 0 0 0 -0 -0 -0 -0 0 0 0 0 0 0 -0 0 0 0 -0 -0 -0 -0 -0 -0 -0 -0 0 0 -0 -1 -1 -0 -0 0 0 nan
nan 0 0 0 -0 -0 0 0 0 0 0 0 0 0 0 -0 -0 0 0 0 0 0 0 0 0 0 0 0 -0 -0 -0 -1 -1 0 0 -0 -0 -0 -1 -0 0 -0 0 0 nan
nan -0 -0 -0 -0 -0 -0 0 0 0 0 0 0 0 -0 -1 0 0 0 0 0 0 0 0 0 0 0 -0 -0 0 0 -0 -0 -0 0 0 -0 -0 -1 -0 0 -0 -0 0 nan
nan -0 -0 -0 -0 -0 0 0 0 0 1 1 0 0 -0 -0 0 0 0 0 0 0 0 0 0 0 -0 -0 -0 -0 -0 -0 -0 -0 -0 -0 0 -1 -0 -0 -0 -0 -0 0 nan
nan -0 -0 -0 -0 -0 -0 -0 0 0 0 0 0 0 -0 -0 -0 0 0 0 0 0 0 0 0 0 0 -0 -0 -0 -0 -0 -1 -0 -0 -0 0 -1 -2 0 -1 -1 -0 0 nan
nan -0 -0 -0 -0 -0 -0 -0 -0 0 0 0 0 -0 -1 -0 0 0 0 0 0 0 0 0 0 0 -0 0 -0 -0 0 0 -0 -0 -0 -0 -0 -1 -1 -1 -1 -1 -0 0 nan
nan -0 -0 -0 -0 -1 -0 -1 -0 0 -0 -1 0 1 0 0 0 0 0 0 0 0 0 0 0 -0 -0 -0 -0 0 0 0 -0 -0 0 0 -0 -1 -0 -0 -1 -2 -0 0 nan
nan -1 -1 -0 -0 -1 -0 -0 -0 0 -2 -3 2 2 0 0 0 0 0 0 0 0 0 -0 -0 -0 -0 -0 0 0 0 -0 -0 -0 0 0 -1 -1 -0 -0 -1 -1 -1 -0 nan
nan -1 -1 -1 -0 -0 -0 -0 0 0 -0 -1 0 -0 0 0 0 0 0 0 0 0 0 0 -0 -0 0 0 0 0 0 -0 -0 -0 0 0 -0 -0 -0 -0 -1 -1 -1 -0 nan
nan -1 -2 -1 -0 -0 -0 -0 -0 1 -0 -1 -0 -0 0 -0 0 0 0 0 0 0 0 -0 -0 0 0 0 -0 -0 -0 -0 0 -0 -0 0 0 -0 -0 -0 -0 -1 -1 -0 nan
nan -0 -0 -1 -1 -1 -0 -0 -0 -0 0 -0 0 0 0 0 -0 0 0 0 0 -0 -0 -0 -0 0 0 -0 -0 -0 -0 0 0 0 0 0 -0 -0 -0 -0 -0 -0 -1 -0 nan
nan 0 0 0 0 -0 -0 -0 0 -1 -1 -0 0 0 0 0 0 0 0 0 -0 0 0 -0 -0 0 -0 -0 -0 0 -0 -0 -0 -0 -0 0 -0 -0 -0 -0 -0 -0 -0 -0 nan
nan 0 0 0 0 0 -0 0 -1 0 -0 0 0 0 0 0 0 0 0 0 0 0 0 -0 0 -0 0 -0 0 0 0 0 0 0 1 0 -0 -1 -0 0 -0 -1 -2 -0 nan
nan -0 0 0 0 0 0 -0 -0 -0 -0 -0 -0 -0 0 0 0 0 0 0 -0 -0 -0 0 -0 0 0 0 0 0 0 -0 -0 0 -0 -0 -0 -0 -0 -0 -0 -0 -1 -0 nan
nan -1 -1 -0 0 0 0 -0 -1 -0 -0 -0 -0 0 0 -0 0 -0 0 -0 -0 0 -1 -0 -0 -0 -0 -0 -0 -0 0 -0 -0 -0 -0 -0 -0 -1 -0 0 -0 -1 -0 -0 nan
nan -1 -1 -0 0 0 0 -0 -0 -0 -1 -0 -0 0 -0 0 0 0 -0 -0 0 -0 0 -0 0 0 0 0 -0 -0 0 -0 -0 -0 0 0 -0 -0 -0 -0 0 -0 -0 0 nan
nan -1 -0 0 0 0 0 -0 -1 -0 -2 -1 -0 -0 -0 -0 0 0 -0 -0 0 -0 0 0 0 0 0 0 0 0 -0 0 -0 0 0 -0 -0 -0 -0 0 0 -0 -0 0 nan
nan -0 -0 -0 -0 0 0 -0 -1 -1 -1 -0 -0 0 -0 -0 -0 -0 -0 -0 -0 -0 0 0 0 0 -0 -0 0 0 0 -0 0 0 0 0 -1 -0 0 -0 -0 -0 -0 -0 nan
nan -1 -0 -1 -0 -0 -1 -0 -0 -0 0 -0 -0 -0 -0 -1 -0 -0 -0 -2 -2 0 0 -0 0 -0 -0 0 -0 0 0 -0 -0 -0 -0 -0 -0 -0 0 -0 -0 -0 -1 -1 nan
nan -0 -1 -1 -0 0 -0 -0 -0 -0 -0 -0 -0 0 0 -1 -0 -0 -1 -1 -3 -2 -2 -0 0 -1 -0 0 -0 -0 -0 -0 -0 -0 -0 -1 -1 -0 0 0 -0 -1 -1 -0 nan
nan 0 -0 -0 -0 -0 0 -0 -0 -0 -0 -0 -0 -0 0 -0 -1 -1 -0 -1 -1 -1 -1 0 0 -0 -0 0 -0 -0 -0 0 -0 -1 -0 -0 -0 -1 -0 -0 0 -0 -1 -1 nan
nan -0 -0 0 0 -0 -0 -0 -0 -0 0 0 -0 -0 0 0 0 -1 -1 -0 -1 -1 0 -0 -0 -1 -1 -0 0 0 0 0 -0 0 -0 -0 -0 -0 -0 -0 -0 -1 -1 -1 nan
nan nan nan nan nan nan nan nan nan nan nan nan nan nan nan nan nan nan nan nan nan nan nan nan nan nan nan nan nan nan nan nan nan nan nan nan nan nan nan nan nan nan nan nan nan
Wind_Speed
5 5 5 6 7 7 8 8 10 12 13 14 14 14 15 14 11 6 6 8 9 7 5 5 3 3 2 2 4 2 1 3 4 5 5 15 5 9 20 11 17 14 13 19 10
6 7 8 8 8 9 10 11 12 13 14 14 15 14 15 17 14 7 11 9 8 4 3 5 2 2 1 1 3 4 3 6 6 4 6 10 9 21 9 17 7 10 11 12 17
10 9 9 10 10 11 13 14 15 15 15 15 15 15 15 17 13 2 11 6 2 2 2 3 2 3 2 2 4 3 5 5 11 17 18 12 9 13 8 6 13 12 23 14 22
16 15 14 13 13 13 14 15 16 16 17 17 16 15 15 14 3 4 10 4 1 2 1 2 2 1 2 3 2 3 9 11 9 15 11 5 10 6 16 16 20 22 13 19 24
14 15 16 15 14 14 14 15 15 16 16 17 17 16 14 9 9 6 9 4 2 2 3 3 2 1 2 3 6 5 4 8 15 19 22 25 18 12 12 23 23 16 14 22 25
14 15 15 16 16 15 15 16 16 17 17 16 16 15 13 6 7 7 6 3 3 3 5 3 2 3 5 4 2 3 11 16 19 25 13 8 11 7 8 12 19 17 18 17 25
14 15 16 17 18 18 17 16 17 18 17 16 16 14 16 21 9 8 6 4 4 4 3 5 5 4 1 4 5 9 6 7 6 5 4 2 6 5 19 21 26 24 19 15 21
17 18 19 20 20 21 20 19 18 18 19 16 13 12 10 11 11 11 7 4 5 6 5 3 4 5 5 6 5 3 1 4 3 6 1 2 6 9 14 13 21 16 12 14 21
18 19 19 20 21 21 19 19 21 18 14 12 10 9 10 9 12 11 8 5 5 6 5 5 5 4 1 1 4 4 4 3 7 5 4 4 8 10 27 16 17 13 10 13 20
19 20 20 21 23 22 19 20 17 14 9 7 10 6 11 7 8 10 8 6 4 4 4 5 3 0 1 3 4 3 3 5 6 4 5 11 14 11 22 19 20 21 19 15 21
21 21 22 22 23 23 20 19 8 5 6 10 20 22 4 8 9 9 9 7 4 3 4 3 1 7 9 7 3 2 4 9 6 8 5 7 13 16 21 15 19 26 20 17 21
23 22 22 20 21 20 16 10 8 10 13 21 30 31 12 9 6 11 11 8 6 5 3 1 8 9 5 4 5 5 6 8 8 4 4 10 19 19 18 13 21 28 25 20 21
25 25 25 21 20 12 15 10 11 11 6 16 11 7 9 24 8 10 16 7 5 4 6 7 4 4 6 5 5 4 5 5 8 6 5 7 9 6 6 9 20 22 27 25 24
27 26 25 25 13 11 10 9 11 10 4 7 2 2 6 6 5 16 14 6 3 6 4 7 4 6 7 5 6 4 6 7 6 4 3 5 8 6 8 9 6 13 20 27 26
25 23 20 17 17 12 10 8 8 5 5 4 3 5 8 6 3 3 16 8 5 5 5 7 4 5 6 7 7 7 3 3 2 3 5 1 0 7 4 8 7 7 19 23 27
24 23 22 14 13 8 5 4 3 5 7 4 4 4 4 3 3 4 5 4 1 2 3 9 2 4 8 5 7 3 1 4 3 1 4 2 3 6 4 5 5 3 4 7 22
24 21 19 16 6 7 5 2 4 5 3 4 6 4 3 5 4 6 6 6 6 1 3 3 5 3 5 4 1 3 2 4 3 2 6 1 0 10 9 8 6 9 24 17 10
24 21 19 11 10 6 5 4 3 4 8 4 2 2 5 6 6 6 5 4 6 2 2 3 7 8 6 7 7 6 5 5 5 3 4 4 6 6 6 8 10 14 18 16 11
27 21 8 3 3 9 9 2 7 5 4 8 5 3 3 3 4 4 6 5 8 16 10 6 6 2 4 4 7 5 6 4 2 1 2 3 7 9 5 4 5 12 11 8 8
29 17 12 10 2 12 3 6 4 3 7 4 3 5 2 3 3 5 7 4 5 14 3 3 4 2 2 3 1 5 6 4 1 4 5 4 5 6 4 3 4 8 9 11 13
24 7 9 5 5 5 2 5 5 7 25 9 5 7 4 4 5 4 6 4 6 2 1 3 5 3 4 7 11 5 4 2 4 4 4 2 5 6 7 4 6 6 5 6 13
19 4 14 3 3 1 2 6 16 15 24 6 5 7 6 8 7 5 7 5 1 8 7 8 4 5 11 2 5 4 8 7 5 6 3 3 7 4 8 6 6 3 4 10 15
10 8 14 12 4 5 10 9 7 10 7 7 7 11 8 8 8 7 6 20 19 5 7 8 5 3 6 3 3 6 6 6 4 3 7 6 5 2 1 2 5 6 13 24 29
9 4 8 9 7 2 4 5 7 9 13 6 9 12 7 15 13 12 21 11 31 23 32 15 6 10 16 6 5 5 6 15 10 4 5 12 9 8 8 8 9 15 23 24 30
8 3 2 3 6 12 4 4 10 7 6 4 4 12 12 8 19 15 14 23 26 30 13 5 10 12 15 10 5 6 6 13 18 23 10 9 15 21 17 14 19 15 34 32 23
8 5 5 9 13 6 6 4 13 10 6 9 12 17 9 12 16 23 20 17 14 15 5 6 5 16 25 21 14 19 12 14 21 21 20 12 15 13 7 12 21 23 24 26 31
9 16 11 9 4 3 6 9 9 16 17 19 13 14 16 23 30 29 28 34 24 20 17 12 5 8 18 10 7 8 26 11 6 6 16 16 14 17 8 9 12 24 24 25 25
Wind_Direction
326 315 305 301 297 303 310 319 322 326 333 337 338 344 344 344 335 306 324 294 303 323 333 329 277 335 260 225 198 175 57 239 243 220 242 259 332 304 312 282 310 272 266 225 274
330 315 306 302 302 301 300 303 306 311 316 322 330 333 333 334 334 268 324 311 286 299 332 350 234 332 219 211 204 161 184 234 212 240 276 281 289 305 293 300 303 297 277 210 232
2 345 328 318 311 308 307 304 300 301 303 310 317 324 328 330 328 250 337 342 307 250 320 345 319 344 313 247 207 196 218 233 262 261 266 271 282 293 263 279 262 287 301 230 213
8 4 356 342 329 323 315 307 302 300 298 299 305 312 318 326 327 313 338 316 302 232 245 303 296 269 278 249 236 271 247 247 270 272 273 248 272 253 260 263 281 299 288 249 208
2 358 356 351 341 324 313 311 308 303 296 293 294 301 309 298 278 280 332 307 289 248 224 248 197 196 244 287 300 216 262 280 278 277 276 270 258 244 254 279 290 284 311 230 220
357 353 350 348 344 335 322 312 310 309 303 295 289 290 291 273 258 262 319 284 255 250 240 242 216 252 264 254 219 283 285 284 288 282 263 242 255 226 257 271 279 280 303 242 221
353 349 347 345 342 338 329 317 310 306 300 290 283 281 278 272 256 249 288 274 248 250 250 242 258 242 235 272 268 277 297 309 271 279 286 304 296 234 264 255 268 269 276 257 226
346 346 346 345 342 338 332 323 317 308 299 287 277 275 262 262 241 240 261 271 245 248 263 253 245 265 228 291 315 308 30 338 290 324 324 67 280 291 315 302 271 277 256 251 231
337 339 340 339 336 335 333 329 319 308 296 282 265 253 264 254 240 226 242 253 237 236 241 237 266 251 250 56 344 359 273 278 311 302 353 48 288 276 299 303 289 266 288 256 239
328 330 331 332 331 332 331 329 320 310 295 278 250 259 235 232 209 209 225 233 222 214 228 206 216 296 23 106 237 249 286 265 261 281 328 301 277 277 283 291 281 277 276 263 234
321 324 325 328 327 329 326 341 330 294 290 249 277 256 255 212 201 215 216 207 207 195 194 190 149 226 220 207 233 261 260 257 255 265 282 255 275 279 278 266 266 269 261 250 232
315 314 313 318 320 323 322 341 320 299 300 285 268 253 222 206 227 217 203 190 178 208 152 27 236 226 215 195 222 250 269 276 287 269 258 287 285 278 263 248 234 247 248 238 230
306 308 309 311 315 311 321 322 325 322 268 282 268 250 242 224 222 225 198 195 185 208 203 198 215 85 166 212 215 234 229 262 264 317 253 303 282 280 282 245 250 246 245 237 228
318 316 309 305 310 312 321 325 332 330 13 271 242 240 171 155 222 229 203 195 190 215 210 242 253 213 217 234 175 269 224 255 285 341 295 47 297 290 272 281 269 253 232 233 227
322 321 320 311 303 306 301 311 324 330 342 242 195 169 175 182 143 186 190 197 202 186 124 253 182 199 203 215 160 227 181 245 289 279 315 329 27 272 319 299 280 248 235 237 234
332 330 318 316 294 304 319 304 300 47 254 298 160 171 141 209 184 136 172 195 118 207 237 249 252 219 208 194 180 139 136 38 22 174 266 267 161 283 241 223 306 293 241 260 241
335 328 317 308 298 274 283 257 34 154 294 251 226 175 186 205 216 177 172 181 189 130 243 299 214 248 153 132 141 131 168 327 355 216 235 217 206 252 272 260 230 276 290 300 274
339 334 318 295 269 237 180 60 192 235 266 342 88 113 198 159 233 185 168 232 235 106 112 174 309 185 188 178 177 166 175 169 232 211 274 168 238 250 214 255 278 296 282 278 294
345 340 358 11 242 196 164 131 217 222 305 344 317 247 257 257 198 146 220 219 209 181 188 180 271 193 184 160 148 185 195 161 130 222 292 247 288 290 281 262 238 326 355 0 353
353 347 22 15 176 173 112 232 237 338 323 346 284 204 267 287 189 186 193 197 229 193 158 227 292 215 178 139 138 165 165 124 96 209 243 278 274 240 289 112 319 338 352 17 37
5 13 28 37 117 189 197 269 321 3 22 358 332 320 336 300 215 222 260 264 214 121 113 147 164 247 131 208 182 167 187 160 130 168 188 271 261 215 238 237 205 270 284 355 9
0 12 0 343 269 270 327 354 338 349 2 334 287 268 280 299 294 254 235 239 120 152 167 214 187 235 210 231 197 203 180 159 152 213 215 155 271 274 240 256 267 245 266 312 328
359 330 22 12 14 23 342 327 340 352 347 347 302 3 308 309 300 259 299 337 316 231 200 185 222 276 303 4 6 212 206 196 118 106 191 160 254 319 14 298 255 296 309 310 318
355 355 353 24 26 205 320 299 319 309 298 293 284 296 340 315 304 298 309 298 340 327 317 307 233 223 241 217 142 188 207 207 196 181 182 221 261 275 279 262 282 300 307 306 308
16 341 340 304 331 313 299 268 296 308 247 352 302 301 305 311 311 295 309 303 306 299 297 243 254 254 256 253 223 245 188 190 209 226 213 219 221 254 246 269 281 296 303 307 304
350 352 324 280 292 276 269 241 287 297 265 282 294 290 295 292 270 291 298 291 280 297 263 317 285 261 264 262 240 252 241 199 211 224 236 261 258 255 233 264 283 285 290 294 299
314 309 277 266 238 275 263 270 267 297 294 264 280 289 287 275 288 283 277 276 265 267 269 274 277 291 260 251 210 237 233 196 192 193 205 230 230 261 267 242 259 273 280 282 294
Height
1538 1536 1535 1534 1532 1531 1530 1528 1527 1526 1523 1521 1519 1516 1514 1512 1511 1509 1508 1508 1506 1505 1503 1503 1503 1502 1502 1503 1503 1504 1510 1511 1505 1502 1496 1490 1490 1485 1485 1482 1479 1477 1473 1467 1474
1537 1536 1534 1532 1530 1529 1528 1527 1525 1524 1522 1520 1518 1515 1513 1510 1508 1507 1507 1505 1504 1503 1503 1502 1502 1501 1501 1501 1502 1503 1509 1503 1496 1494 1492 1489 1489 1485 1484 1478 1474 1473 1473 1468 1476
1537 1535 1532 1530 1529 1527 1526 1525 1524 1522 1520 1518 1516 1514 1512 1509 1507 1505 1504 1503 1502 1502 1502 1502 1501 1501 1501 1500 1500 1499 1501 1496 1492 1490 1489 1486 1484 1483 1480 1476 1471 1472 1468 1469 1470
1537 1535 1532 1530 1528 1526 1524 1523 1521 1519 1518 1516 1514 1513 1510 1508 1510 1503 1502 1502 1501 1501 1501 1500 1501 1500 1501 1500 1497 1498 1492 1492 1488 1487 1486 1482 1480 1478 1478 1472 1469 1469 1465 1463 1469
1537 1534 1532 1529 1526 1524 1522 1521 1518 1516 1515 1513 1511 1510 1509 1507 1502 1501 1501 1500 1500 1500 1500 1500 1499 1499 1500 1498 1497 1494 1490 1488 1486 1483 1481 1479 1476 1474 1472 1469 1467 1465 1464 1460 1462
1537 1534 1531 1528 1525 1523 1520 1518 1516 1514 1512 1510 1509 1508 1507 1506 1498 1498 1498 1498 1498 1498 1498 1499 1498 1498 1497 1496 1496 1491 1488 1485 1480 1475 1475 1474 1468 1470 1465 1464 1463 1463 1461 1459 1458
1536 1533 1530 1527 1524 1521 1518 1515 1513 1510 1508 1507 1505 1505 1504 1499 1496 1496 1497 1496 1496 1496 1496 1497 1497 1498 1496 1494 1492 1489 1489 1482 1476 1474 1472 1469 1469 1466 1459 1459 1458 1459 1459 1457 1456
1536 1533 1530 1526 1523 1519 1516 1513 1510 1507 1504 1503 1502 1502 1497 1493 1492 1493 1494 1494 1494 1494 1495 1496 1496 1496 1495 1493 1490 1489 1489 1489 1476 1474 1470 1470 1474 1462 1459 1456 1454 1455 1456 1454 1454
1535 1532 1528 1525 1521 1517 1513 1510 1506 1503 1500 1499 1499 1500 1493 1489 1488 1491 1492 1493 1492 1493 1494 1495 1496 1494 1492 1493 1497 1494 1495 1489 1482 1474 1473 1472 1470 1459 1456 1456 1453 1452 1451 1453 1453
1532 1530 1527 1523 1519 1515 1512 1508 1503 1500 1498 1498 1497 1500 1489 1485 1485 1487 1490 1491 1491 1491 1493 1494 1494 1495 1495 1497 1505 1492 1492 1489 1487 1476 1473 1472 1466 1456 1452 1453 1449 1447 1447 1448 1448
1530 1527 1524 1521 1517 1513 1510 1506 1505 1501 1496 1493 1488 1484 1484 1484 1484 1484 1486 1489 1490 1490 1492 1491 1495 1495 1490 1490 1488 1489 1492 1490 1482 1474 1476 1470 1462 1453 1446 1445 1444 1441 1442 1443 1443
1527 1524 1520 1517 1514 1511 1509 1507 1505 1505 1492 1484 1478 1476 1479 1481 1482 1483 1485 1487 1487 1489 1489 1493 1491 1481 1483 1485 1488 1489 1489 1485 1477 1471 1472 1466 1453 1444 1437 1433 1431 1433 1435 1437 1440
1522 1520 1516 1513 1510 1509 1507 1506 1503 1500 1497 1478 1470 1471 1472 1477 1477 1477 1481 1483 1484 1487 1488 1490 1478 1476 1480 1482 1485 1485 1486 1483 1480 1473 1468 1467 1453 1440 1428 1425 1425 1426 1428 1432 1432
1518 1515 1512 1509 1510 1506 1506 1505 1503 1501 1505 1477 1470 1470 1470 1471 1475 1474 1477 1480 1481 1483 1485 1485 1476 1477 1480 1480 1482 1485 1476 1477 1477 1478 1484 1469 1459 1444 1429 1425 1422 1421 1423 1425 1428
1514 1511 1508 1506 1506 1506 1507 1504 1504 1503 1530 1470 1468 1468 1469 1472 1472 1472 1474 1476 1477 1478 1481 1476 1474 1476 1477 1475 1475 1478 1473 1474 1474 1480 1476 1472 1485 1444 1433 1426 1418 1416 1418 1420 1423
1511 1508 1503 1504 1503 1504 1504 1503 1504 1520 1523 1469 1466 1468 1470 1469 1469 1471 1474 1476 1476 1477 1476 1471 1470 1470 1468 1468 1470 1470 1472 1478 1481 1478 1476 1468 1477 1451 1435 1423 1417 1413 1414 1417 1417
1508 1506 1501 1498 1501 1501 1503 1504 1521 1531 1474 1465 1466 1467 1467 1469 1469 1468 1471 1474 1477 1481 1483 1472 1468 1461 1461 1467 1470 1471 1474 1501 1496 1477 1480 1487 1481 1442 1423 1417 1418 1415 1410 1413 1412
1505 1501 1497 1495 1495 1498 1501 1507 1521 1489 1481 1465 1466 1467 1469 1465 1464 1466 1469 1472 1470 1471 1488 1478 1472 1460 1457 1457 1465 1472 1472 1493 1485 1505 1481 1470 1462 1433 1417 1413 1412 1412 1406 1408 1411
1501 1496 1493 1492 1492 1494 1499 1520 1497 1487 1476 1473 1468 1467 1468 1463 1463 1466 1469 1466 1458 1460 1468 1473 1464 1452 1452 1452 1455 1471 1465 1465 1474 1482 1480 1465 1449 1425 1412 1408 1411 1410 1405 1406 1409
1498 1495 1497 1494 1494 1495 1498 1491 1485 1482 1479 1473 1473 1466 1463 1462 1465 1466 1462 1451 1449 1447 1449 1451 1460 1450 1450 1451 1453 1456 1458 1468 1478 1478 1476 1464 1459 1440 1416 1410 1410 1410 1407 1406 1407
1500 1495 1497 1496 1497 1499 1505 1499 1491 1487 1487 1485 1479 1475 1469 1467 1465 1466 1455 1447 1444 1446 1450 1453 1456 1454 1452 1450 1447 1453 1457 1457 1462 1468 1468 1467 1450 1421 1416 1413 1411 1410 1407 1406 1405
1504 1501 1500 1498 1500 1496 1495 1499 1501 1492 1492 1490 1483 1478 1477 1473 1467 1464 1456 1447 1444 1444 1451 1449 1455 1458 1444 1436 1436 1438 1439 1446 1456 1459 1461 1470 1448 1411 1411 1411 1411 1407 1407 1406 1405
1509 1506 1502 1501 1506 1506 1507 1504 1501 1498 1497 1496 1489 1488 1489 1482 1472 1461 1457 1452 1449 1445 1443 1441 1448 1459 1441 1442 1438 1437 1437 1434 1441 1446 1451 1455 1442 1409 1408 1409 1409 1409 1409 1407 1404
1515 1514 1508 1507 1512 1514 1512 1505 1502 1499 1495 1492 1489 1485 1486 1482 1481 1474 1470 1460 1453 1452 1447 1440 1429 1424 1416 1423 1424 1432 1430 1426 1430 1444 1429 1424 1418 1409 1406 1406 1403 1404 1404 1404 1403
1519 1518 1517 1517 1512 1511 1511 1507 1501 1499 1494 1491 1488 1489 1487 1483 1477 1468 1462 1461 1453 1451 1447 1435 1430 1422 1414 1416 1419 1414 1413 1420 1423 1414 1420 1412 1415 1400 1402 1402 1399 1400 1398 1397 1396
1522 1521 1517 1514 1511 1511 1508 1504 1500 1496 1496 1490 1489 1484 1484 1484 1478 1468 1464 1461 1457 1447 1444 1439 1424 1421 1410 1406 1410 1407 1409 1409 1407 1405 1409 1409 1405 1397 1398 1400 1397 1396 1395 1392 1391
1519 1519 1515 1509 1508 1508 1502 1498 1495 1494 1488 1485 1483 1482 1479 1470 1467 1463 1459 1452 1450 1446 1444 1440 1436 1426 1403 1402 1408 1414 1385 1403 1402 1401 1402 1406 1399 1389 1395 1395 1394 1391 1391 1388 1386